TimePST,TemperatureF,Dew PointF,Humidity,Sea Level PressureIn,VisibilityMPH,Wind Direction,Wind SpeedMPH,Gust SpeedMPH,PrecipitationIn,Events,Conditions,WindDirDegrees,DateUTC
12:53 AM,45.0,41.0,86,29.99,10.0,Calm,Calm,-,0.01,Rain,Light Rain,0,2012-12-05 08:53:00
1:53 AM,39.9,39.0,97,30.02,10.0,Calm,Calm,-,0.00,,Scattered Clouds,0,2012-12-05 09:53:00
2:53 AM,43.0,37.0,80,30.07,7.0,West,11.5,18.4,0.01,Rain,Rain,280,2012-12-05 10:53:00
3:53 AM,41.0,37.0,86,30.09,10.0,Calm,Calm,-,0.02,,Clear,0,2012-12-05 11:53:00
4:53 AM,37.9,35.1,89,30.11,10.0,NW,3.5,-,N/A,,Clear,310,2012-12-05 12:53:00
6:53 AM,36.0,35.1,97,30.16,10.0,Calm,Calm,-,N/A,,Clear,0,2012-12-05 14:53:00
7:53 AM,35.1,34.0,96,30.19,10.0,WNW,3.5,-,0.01,,Partly Cloudy,290,2012-12-05 15:53:00
8:53 AM,37.9,36.0,93,30.19,9.0,Calm,Calm,-,N/A,,Clear,0,2012-12-05 16:53:00
9:53 AM,42.1,39.0,89,30.22,10.0,Calm,Calm,-,N/A,,Mostly Cloudy,0,2012-12-05 17:53:00
10:26 AM,44.6,39.2,81,30.22,10.0,Calm,Calm,-,N/A,,Partly Cloudy,0,2012-12-05 18:26:00
10:53 AM,45.0,39.9,82,30.22,10.0,Calm,Calm,-,N/A,,Clear,0,2012-12-05 18:53:00
11:53 AM,46.9,39.9,77,30.23,10.0,SSE,3.5,-,N/A,,Partly Cloudy,150,2012-12-05 19:53:00
12:53 PM,48.0,42.1,80,30.22,10.0,SSE,4.6,-,N/A,,Scattered Clouds,150,2012-12-05 20:53:00
1:53 PM,46.9,39.9,77,30.21,10.0,Calm,Calm,-,N/A,,Mostly Cloudy,0,2012-12-05 21:53:00
2:53 PM,48.9,39.0,69,30.20,10.0,Variable,3.5,-,N/A,,Mostly Cloudy,0,2012-12-05 22:53:00
3:53 PM,46.9,37.9,71,30.22,10.0,South,3.5,-,N/A,,Partly Cloudy,170,2012-12-05 23:53:00
4:53 PM,42.1,39.9,92,30.23,10.0,WNW,3.5,-,N/A,,Mostly Cloudy,300,2012-12-06 00:53:00
5:53 PM,37.9,37.0,97,30.22,10.0,West,3.5,-,N/A,,Partly Cloudy,280,2012-12-06 01:53:00
6:53 PM,39.0,37.0,93,30.23,10.0,Calm,Calm,-,N/A,,Clear,0,2012-12-06 02:53:00
7:53 PM,37.0,36.0,96,30.25,10.0,West,3.5,-,N/A,,Mostly Cloudy,280,2012-12-06 03:53:00
8:53 PM,39.0,37.0,93,30.25,10.0,Calm,Calm,-,N/A,,Overcast,0,2012-12-06 04:53:00
9:53 PM,37.9,37.0,97,30.25,10.0,Calm,Calm,-,N/A,,Overcast,0,2012-12-06 05:53:00
10:46 PM,37.4,35.6,93,30.24,2.5,Calm,Calm,-,N/A,,Partly Cloudy,0,2012-12-06 06:46:00
10:53 PM,37.0,35.1,93,30.24,9.0,Calm,Calm,-,N/A,,Clear,0,2012-12-06 06:53:00
11:22 PM,35.6,33.8,93,30.23,1.5,Calm,Calm,-,N/A,,Clear,0,2012-12-06 07:22:00
11:34 PM,35.6,33.8,93,30.24,3.0,WNW,3.5,-,N/A,,Clear,290,2012-12-06 07:34:00
11:53 PM,34.0,33.1,96,30.24,2.5,Calm,Calm,-,N/A,,Clear,0,2012-12-06 07:53:00